Weather in Troitskoye

Russia / Kursk Oblast     51°36′57″N   37°31′51″E
В апреле 2022 года жителям России запретили посещать сайт meteo.paraplan.net по решению Генеральной прокуратуры. Аудитория сайта уменьшилась в 10 раз. Владельцы сайта не видят смысла в поддержке погодного сервера в таких условиях. Сайт будет закрыт в октябре.
temp.,
°C
wind,
m/s
gust,
m/s
humid.,
%
clouds,
%
prec.,
mm/h
press.,
hPa
HPBL,
m
3 october, mon
mon300:00+15sse91491100 1.9 994859
03:00+13s51093100 3.8 994650
06:00+11sw71085100 1.8 9961035
09:00+8sw81183100 1.9 9991139
12:00+8ssw101583100 0.4 10011283
15:00+10ssw91583100 0.9 10031160
18:00+11ssw814775 0.1 1005813
21:00+10s715775 0.1 1007596
4 october, tue
tue400:00+9s716765 0.0 1008550
03:00+9s7167935 0.0 1008665
06:00+9s7158273 0.0 1009558
09:00+11s81479100 0.1 10101106
12:00+13ssw91466100 0.1 10101533
15:00+12ssw71272100 0.6 10121446
18:00+10wsw5975100 0.1 1013512
21:00+9sw51079100 0.3 1014671
5 october, wed
wed500:00+9ssw51179100 0.0 1015539
03:00+8ssw61281100 0.0 1016635
06:00+9sw61182100 0.1 1016712
09:00+9sw71181100 0.2 1017867
12:00+12wsw81069100 0.3 10181383
15:00+9wsw588199 0.9 1019805
18:00+8w368790 0.3 1020155
21:00+7wsw3789100 0.4 1021161
6 october, thu
thu600:00+7wsw489268 0.0 1022210
03:00+8w4990100 0.0 1022377
06:00+8wsw499293 0.0 1022362
09:00+10wsw5985100 0.0 1022413
12:00+12wsw58756 0.0 1022668
15:00+15w7965100 0.0 10211244
18:00+13wsw48756 0.0 1021267
21:00+12wsw5107745 0.0 1021406
7 october, fri
fri700:00+9wsw410915 0.0 1022259
03:00+9wsw49955 0.0 1022206
06:00+9w49961 0.0 1022203
09:00+11nw588613 0.0 1023383
12:00+15nw57570 0.0 1024804
15:00+16nw56480 0.0 1024957
18:00+12nw34700 0.0 102548
21:00+10nw33790 0.0 102636